Meteo orario Golaszowka

Oggi, 12 Aprile, Lunedi

Tempo Temperatura Precipitazioni Vento Pressione Umidità
00:00 +11°C° 0 mm 4 m/s 738 mm Hg 72%
01:00 +10°C° 0 mm 5 m/s 738 mm Hg 73%
02:00 +10°C° 0 mm 5 m/s 738 mm Hg 75%
03:00 +10°C° 0 mm 5 m/s 738 mm Hg 77%
04:00 +9°C° 0 mm 5 m/s 737 mm Hg 80%
05:00 +10°C° 0 mm 5 m/s 737 mm Hg 78%
06:00 +10°C° 0 mm 5 m/s 737 mm Hg 75%
07:00 +12°C° 0 mm 5 m/s 737 mm Hg 73%
08:00 +13°C° 0 mm 6 m/s 737 mm Hg 68%
09:00 +14°C° 0 mm 6 m/s 737 mm Hg 62%
10:00 +15°C° 0 mm 7 m/s 737 mm Hg 56%
11:00 +16°C° 0 mm 7 m/s 737 mm Hg 55%
12:00 +16°C° 0 mm 7 m/s 737 mm Hg 54%
13:00 +17°C° 0 mm 7 m/s 737 mm Hg 54%
14:00 +16°C° 0 mm 6 m/s 737 mm Hg 58%
15:00 +15°C° 0 mm 5 m/s 737 mm Hg 63%
16:00 +14°C° 0 mm 4 m/s 737 mm Hg 67%
17:00 +13°C° 0.1 mm 3 m/s 737 mm Hg 72%
18:00 +13°C° 0.1 mm 3 m/s 738 mm Hg 77%
19:00 +13°C° 0.1 mm 2 m/s 738 mm Hg 82%
20:00 +12°C° 0 mm 2 m/s 738 mm Hg 84%
21:00 +10°C° 0 mm 3 m/s 739 mm Hg 87%
22:00 +9°C° 0 mm 3 m/s 739 mm Hg 89%
23:00 +8°C° 0.2 mm 3 m/s 739 mm Hg 90%

Domani, 13 Aprile, Martedi

Tempo Temperatura Precipitazioni Vento Pressione Umidità
00:00 +7°C° 0.2 mm 3 m/s 739 mm Hg 90%
01:00 +7°C° 0.2 mm 3 m/s 739 mm Hg 90%
02:00 +5°C° 0.2 mm 3 m/s 739 mm Hg 91%
03:00 +5°C° 0.2 mm 3 m/s 739 mm Hg 92%
04:00 +4°C° 0.2 mm 3 m/s 740 mm Hg 93%
05:00 +4°C° 0.4 mm 3 m/s 740 mm Hg 94%
06:00 +3°C° 0.4 mm 3 m/s 740 mm Hg 94%
07:00 +2°C° 0.4 mm 3 m/s 740 mm Hg 95%
08:00 +2°C° 0.4 mm 3 m/s 740 mm Hg 95%
09:00 +1°C° 0.4 mm 4 m/s 740 mm Hg 96%
10:00 0°C° 0.4 mm 4 m/s 740 mm Hg 96%
11:00 0°C° 0.4 mm 4 m/s 740 mm Hg 96%
12:00 0°C° 0.4 mm 4 m/s 740 mm Hg 97%
13:00 0°C° 0.4 mm 4 m/s 740 mm Hg 97%
14:00 0°C° 0.3 mm 4 m/s 740 mm Hg 97%
15:00 0°C° 0.3 mm 4 m/s 740 mm Hg 97%
16:00 -1°C° 0.3 mm 4 m/s 739 mm Hg 97%
17:00 -1°C° 1 mm 4 m/s 739 mm Hg 98%
18:00 -1°C° 1 mm 4 m/s 740 mm Hg 98%
19:00 -1°C° 1 mm 4 m/s 740 mm Hg 99%
20:00 -1°C° 1.9 mm 4 m/s 739 mm Hg 99%
21:00 -2°C° 1.9 mm 4 m/s 739 mm Hg 99%
22:00 -2°C° 1.9 mm 4 m/s 739 mm Hg 99%
23:00 -2°C° 1.6 mm 4 m/s 739 mm Hg 99%

Dopodomani, 14 Aprile, Mercoledi

Tempo Temperatura Precipitazioni Vento Pressione Umidità
00:00 -2°C° 1.6 mm 5 m/s 739 mm Hg 99%
01:00 -2°C° 1.6 mm 5 m/s 738 mm Hg 98%
02:00 -2°C° 1.1 mm 5 m/s 738 mm Hg 98%
03:00 -2°C° 1.1 mm 5 m/s 738 mm Hg 98%
04:00 -2°C° 1.1 mm 5 m/s 738 mm Hg 98%
05:00 -2°C° 1.4 mm 5 m/s 738 mm Hg 98%
06:00 -2°C° 1.4 mm 5 m/s 738 mm Hg 98%
07:00 -3°C° 1.4 mm 6 m/s 738 mm Hg 98%
08:00 -3°C° 1.3 mm 6 m/s 738 mm Hg 99%
09:00 -3°C° 1.3 mm 6 m/s 739 mm Hg 99%
10:00 -3°C° 1.3 mm 6 m/s 739 mm Hg 99%
11:00 -2°C° 1 mm 5 m/s 739 mm Hg 99%
12:00 -1°C° 1 mm 5 m/s 739 mm Hg 99%
13:00 -1°C° 1 mm 5 m/s 739 mm Hg 99%
14:00 -1°C° 0.9 mm 4 m/s 739 mm Hg 99%
15:00 -1°C° 0.9 mm 4 m/s 739 mm Hg 99%
16:00 0°C° 0.9 mm 3 m/s 739 mm Hg 99%
17:00 0°C° 0.8 mm 3 m/s 739 mm Hg 99%
18:00 -1°C° 0.8 mm 3 m/s 739 mm Hg 99%
19:00 -1°C° 0.8 mm 3 m/s 739 mm Hg 99%
20:00 -1°C° 0.6 mm 3 m/s 739 mm Hg 99%
21:00 0°C° 0.6 mm 3 m/s 738 mm Hg 99%
22:00 0°C° 0.6 mm 3 m/s 738 mm Hg 99%
23:00 0°C° 0.6 mm 3 m/s 738 mm Hg 99%

15 Aprile, Giovedi

Tempo Temperatura Precipitazioni Vento Pressione Umidità
00:00 0°C° 0.6 mm 3 m/s 738 mm Hg 99%
01:00 0°C° 0.6 mm 3 m/s 738 mm Hg 99%
02:00 -1°C° 0.7 mm 3 m/s 738 mm Hg 99%
03:00 -1°C° 0.7 mm 2 m/s 737 mm Hg 99%
04:00 -1°C° 0.7 mm 2 m/s 737 mm Hg 99%
05:00 -1°C° 0.6 mm 2 m/s 737 mm Hg 99%
06:00 +1°C° 0.6 mm 2 m/s 738 mm Hg 99%
07:00 +1°C° 0.6 mm 2 m/s 738 mm Hg 99%
08:00 +1°C° 0.4 mm 2 m/s 738 mm Hg 99%
09:00 0°C° 0.4 mm 3 m/s 738 mm Hg 99%
10:00 0°C° 0.4 mm 3 m/s 738 mm Hg 100%
11:00 0°C° 0.3 mm 3 m/s 738 mm Hg 99%
12:00 0°C° 0.3 mm 3 m/s 738 mm Hg 99%
13:00 0°C° 0.3 mm 3 m/s 738 mm Hg 99%
14:00 0°C° 0.1 mm 3 m/s 738 mm Hg 99%
15:00 0°C° 0.1 mm 3 m/s 738 mm Hg 99%
16:00 0°C° 0.1 mm 3 m/s 738 mm Hg 99%
17:00 0°C° 0 mm 3 m/s 738 mm Hg 99%
18:00 0°C° 0 mm 3 m/s 738 mm Hg 99%
19:00 0°C° 0 mm 3 m/s 738 mm Hg 99%
20:00 0°C° 0 mm 3 m/s 738 mm Hg 99%
21:00 0°C° 0 mm 3 m/s 738 mm Hg 99%
22:00 0°C° 0 mm 3 m/s 738 mm Hg 99%
23:00 0°C° 0.1 mm 3 m/s 738 mm Hg 99%

16 Aprile, Venerdi

Tempo Temperatura Precipitazioni Vento Pressione Umidità
00:00 0°C° 0.1 mm 3 m/s 738 mm Hg 99%
01:00 0°C° 0.1 mm 3 m/s 738 mm Hg 99%
02:00 0°C° 0.1 mm 3 m/s 738 mm Hg 99%
03:00 -1°C° 0.1 mm 3 m/s 738 mm Hg 99%
04:00 -1°C° 0.1 mm 3 m/s 738 mm Hg 98%
05:00 -1°C° 0.3 mm 3 m/s 738 mm Hg 99%
06:00 0°C° 0.3 mm 3 m/s 738 mm Hg 99%
07:00 0°C° 0.3 mm 3 m/s 738 mm Hg 99%
08:00 0°C° 0.6 mm 3 m/s 738 mm Hg 99%
09:00 0°C° 0.6 mm 3 m/s 738 mm Hg 99%
10:00 -1°C° 0.6 mm 4 m/s 738 mm Hg 99%
11:00 -1°C° 0.9 mm 4 m/s 738 mm Hg 99%
12:00 -1°C° 0.9 mm 4 m/s 738 mm Hg 99%
13:00 -1°C° 0.9 mm 4 m/s 738 mm Hg 99%
14:00 -1°C° 0.8 mm 4 m/s 739 mm Hg 99%
15:00 -1°C° 0.8 mm 4 m/s 739 mm Hg 99%
16:00 -1°C° 0.8 mm 4 m/s 739 mm Hg 99%
17:00 -1°C° 0.4 mm 4 m/s 739 mm Hg 99%
18:00 -1°C° 0.4 mm 4 m/s 739 mm Hg 99%
19:00 -1°C° 0.4 mm 4 m/s 739 mm Hg 99%
20:00 -1°C° 0.3 mm 4 m/s 739 mm Hg 99%
21:00 -1°C° 0.3 mm 4 m/s 738 mm Hg 99%
22:00 -1°C° 0.3 mm 4 m/s 738 mm Hg 99%
23:00 -1°C° 0.7 mm 4 m/s 738 mm Hg 99%

17 Aprile, Sabato

Tempo Temperatura Precipitazioni Vento Pressione Umidità
00:00 -1°C° 0.7 mm 4 m/s 738 mm Hg 99%
01:00 -1°C° 0.7 mm 4 m/s 738 mm Hg 99%
02:00 -1°C° 1 mm 4 m/s 737 mm Hg 99%
03:00 0°C° 1 mm 3 m/s 737 mm Hg 99%
04:00 0°C° 1 mm 3 m/s 737 mm Hg 99%
05:00 +1°C° 0.1 mm 2 m/s 738 mm Hg 99%
06:00 +1°C° 0.1 mm 2 m/s 738 mm Hg 99%
07:00 +2°C° 0.1 mm 1 m/s 738 mm Hg 99%
08:00 +2°C° 0 mm 1 m/s 738 mm Hg 99%
09:00 +3°C° 0 mm 1 m/s 738 mm Hg 99%
10:00 +3°C° 0 mm 1 m/s 739 mm Hg 99%
11:00 +3°C° 0 mm 1 m/s 739 mm Hg 99%
12:00 +3°C° 0 mm 0 m/s 739 mm Hg 99%
13:00 +3°C° 0 mm 0 m/s 739 mm Hg 99%
14:00 +3°C° 0 mm 0 m/s 739 mm Hg 99%
15:00 +3°C° 0 mm 0 m/s 739 mm Hg 99%
16:00 +3°C° 0 mm 0 m/s 739 mm Hg 99%
17:00 +3°C° 0 mm 0 m/s 739 mm Hg 99%
18:00 +2°C° 0 mm 0 m/s 739 mm Hg 99%
19:00 +3°C° 0 mm 1 m/s 739 mm Hg 99%
20:00 +3°C° 0 mm 1 m/s 740 mm Hg 99%
21:00 +3°C° 0 mm 1 m/s 740 mm Hg 99%
22:00 +3°C° 0 mm 1 m/s 740 mm Hg 99%
23:00 +2°C° 0 mm 2 m/s 740 mm Hg 99%
Mostrare altro

Abbiamo bisogno del tuo consenso

Meteoprog e i nostri fornitori di servizi possono memorizzare e accedere a dati personali come cookie, identificatori di dispositivi o altre tecnologie simili sul tuo dispositivo e possono elaborare tali dati per personalizzare i contenuti e gli annunci, nonché fornire funzionalità dei social media e analizzarne il traffico.

  • Archiviare e/o accedere alle informazioni sul tuo dispositivo

    Cookie, identificatori di dispositivi o altre informazioni possono essere memorizzati o resi accessibili sul tuo dispositivo per le finalità sopra indicate.

  • Annunci e contenuti personalizzati, misurazione di annunci e contenuti, approfondimenti sul pubblico e sviluppo di prodotti

    Gli annunci e i contenuti possono essere personalizzati in base a un profilo. È possibile aggiungere più dati per personalizzare meglio annunci e contenuti. È possibile misurare il rendimento degli annunci e dei contenuti. È possibile ricavare informazioni sul pubblico che ha visto gli annunci e i contenuti. Tali dati possono essere utilizzati per sviluppare o migliorare l'esperienza, i sistemi e il software dell'utente.

Cliccando su “Accetto”, acconsenti all'uso di cookie, identificatori di dispositivo, web beacon o altre tecnologie simili. Puoi modificare le impostazioni nel browser del tuo dispositivo.

Per determinati scopi, è possibile fare affidamento su interessi legali, piuttosto che sul consenso. Puoi approfondire questo argomento consultando la nostra Informativa sulla privacy e sui cookie.